Location: Starlight Observatory
(38.4029°N, 85.8936°W)
Time: 09:39:57
(UTC-04:00)

Iridium 84 - Visible Passes

Search period start: 23 June 2017 00:00
Search period end: 03 July 2017 00:00
Orbit: 776 x 779 km, 86.4° (Epoch: 22 June)

Date Brightness Start Highest point End Pass type
(mag) Time Alt. Az. Time Alt. Az. Time Alt. Az.
24 Jun 8.2 05:44:09 10° SE 05:48:02 22° E 05:51:55 10° NNE visible
25 Jun 8.7 05:13:21 10° E 05:14:52 11° ENE 05:16:23 10° ENE visible
27 Jun 7.5 05:43:28 10° SE 05:47:59 31° E 05:52:32 10° NNE visible
28 Jun 8.2 05:11:30 10° ESE 05:14:45 17° E 05:18:00 10° NE visible
30 Jun 6.7 05:43:03 10° SSE 05:47:59 45° E 05:52:57 10° NNE visible
01 Jul 7.8 05:10:32 10° SE 05:14:40 24° E 05:18:49 10° NNE visible
02 Jul 8.3 04:39:10 10° ESE 04:41:29 13° ENE 04:43:47 10° NE visible
